Location: Unspecified
(0.0000°N, 0.0000°E)
Time: 01:50:52
(UTC+00:00)

SWISSCUBE - Visible Passes

Search period start: 28 February 2021 00:00
Search period end: 10 March 2021 00:00
Orbit: 698 x 710 km, 98.6° (Epoch: 27 February)

Date Brightness Start Highest point End Pass type
(mag) Time Alt. Az. Time Alt. Az. Time Alt. Az.
28 Feb ? 18:37:22 10° N 18:42:04 62° WNW 18:46:48 10° SSW visible
01 Mar ? 05:24:16 10° ESE 05:26:20 13° ENE 05:28:23 10° NE visible
01 Mar ? 19:22:16 10° NW 19:25:18 17° WNW 19:28:22 10° WSW visible
03 Mar ? 19:10:32 10° NNW 19:14:19 24° WNW 19:18:08 10° SW visible
05 Mar ? 18:59:04 10° NNW 19:03:19 33° WNW 19:07:37 10° SW visible
06 Mar ? 05:43:48 10° SE 05:47:34 24° ENE 05:51:18 10° NNE visible
07 Mar ? 18:47:45 10° N 18:52:19 47° WNW 18:56:56 10° SSW visible
08 Mar ? 05:33:33 10° ESE 05:36:34 17° ENE 05:39:34 10° NE visible
08 Mar ? 19:33:26 10° NW 19:35:33 13° WNW 19:37:41 10° WSW visible
09 Mar ? 18:36:36 10° N 18:41:20 68° WNW 18:46:06 10° SSW visible
